CW9487 Weather Reports


time (UTC)temp
C
wind
direction
speed
KPH
gust
KPH
rain 1hr
cm
rain 24hr
cm
rain mn
cm
humidity
%
barometer
mb
20260507064537 12 132 0.0 0.0 0.00 0.89 0.43 100 1014.3
20260507063035 12 132 0.0 0.0 0.00 0.89 0.43 100 1014.2
20260507061535 12 132 0.0 4.8 0.00 0.89 0.43 100 1014.1
20260507060039 12 132 0.0 3.2 0.00 0.89 0.43 100 1014.0
20260507054537 12 132 0.0 3.2 0.00 0.89 0.43 100 1013.7
20260507053033 12 130 0.0 0.0 0.00 0.89 0.43 100 1013.9
20260507051533 11 130 0.0 0.0 0.00 0.89 0.43 100 1013.7
20260507050033 11 130 0.0 0.0 0.00 0.89 0.43 100 1013.8
20260507044530 11 130 0.0 0.0 0.00 0.97 0.43 100 1013.6
20260507043029 11 130 0.0 0.0 0.00 0.97 0.43 100 1013.4
20260507041528 11 130 0.0 0.0 0.00 0.97 0.43 100 1013.2
20260507040029 11 130 0.0 0.0 0.00 0.97 0.43 100 1013.2
20260507034527 11 130 0.0 0.0 0.00 1.04 0.43 100 1013.1
20260507033030 11 130 0.0 0.0 0.03 1.04 0.43 100 1013.3
20260507031526 11 130 0.0 0.0 0.03 1.04 0.43 100 1013.2
20260507030026 11 130 0.0 0.0 0.03 1.04 0.43 100 1013.1
20260507024525 11 130 0.0 0.0 0.03 1.09 0.43 100 1013.3
20260507023024 11 130 0.0 0.0 0.00 1.07 0.41 100 1013.3
20260507021524 11 130 0.0 0.0 0.00 1.07 0.41 100 1013.3
20260507020028 11 130 0.0 0.0 0.00 1.07 0.41 100 1013.2
20260507014528 11 134 0.0 0.0 0.03 1.09 0.41 100 1013.2
20260507013040 11 134 0.0 0.0 0.05 1.09 0.41 100 1013.2
20260507011522 11 134 0.0 3.2 0.05 1.09 0.41 99 1013.3
20260507010025 11 134 0.0 6.4 0.05 1.09 0.41 99 1013.3
20260507004518 12 147 0.0 14.5 0.03 1.17 0.38 100 1013.3
20260507003017 12 168 0.0 9.7 0.03 1.17 0.36 100 1013.4
20260507001516 12 98 1.6 14.5 0.05 1.17 0.36 99 1013.3
20260507000015 12 133 1.6 12.9 0.10 1.17 0.36 99 1013.3
20260506234515 12 94 3.2 9.7 0.15 1.17 0.36 99 1013.3
20260506233012 12 136 0.0 6.4 0.23 1.17 0.33 99 1013.3
20260506231510 12 156 0.0 14.5 0.23 1.12 0.30 100 1013.4
20260506230009 12 179 0.0 11.3 0.25 1.09 0.25 99 1013.4
20260506224508 12 109 1.6 6.4 0.25 1.02 0.20 100 1013.6
20260506223006 12 160 0.0 0.0 0.18 0.91 0.10 99 1013.7
20260506221505 12 162 0.0 3.2 0.18 0.89 0.05 99 1013.6
20260506220002 12 130 1.6 14.5 0.18 0.81 0.81 99 1013.6
20260506214505 12 123 0.0 9.7 0.15 0.76 0.76 100 1013.6
20260506213002 12 157 0.0 14.5 0.23 0.71 0.71 100 1013.8
20260506211501 12 105 1.6 14.5 0.20 0.69 0.69 100 1013.6
20260506210101 12 125 0.0 11.3 0.20 0.66 0.66 99 1013.8
20260506204559 12 126 3.2 14.5 0.15 0.61 0.61 99 1013.9
20260506203100 12 199 0.0 19.3 0.08 0.51 0.51 99 1013.9
20260506201559 12 179 0.0 4.8 0.05 0.48 0.48 99 1013.9
20260506200058 12 136 1.6 16.1 0.03 0.46 0.46 99 1013.5
20260506194602 12 195 3.2 17.7 0.00 0.43 0.43 99 1013.2
20260506193057 12 257 1.6 14.5 0.03 0.43 0.43 99 1012.9
20260506191557 13 142 0.0 16.1 0.03 0.43 0.43 99 1012.9
20260506190058 13 150 1.6 12.9 0.05 0.43 0.43 99 1012.6
20260506184559 13 58 1.6 14.5 0.05 0.43 0.43 99 1012.5
20260506183103 13 149 1.6 16.1 0.05 0.43 0.43 99 1012.6
20260506181620 12 117 3.2 24.1 0.05 0.43 0.43 99 1012.5
20260506180054 13 132 3.2 14.5 0.05 0.41 0.41 98 1012.6
20260506174554 13 119 3.2 11.3 0.05 0.38 0.38 98 1012.5
20260506173100 13 152 1.6 12.9 0.03 0.36 0.36 98 1012.5
20260506171552 13 142 3.2 22.5 0.03 0.36 0.36 98 1012.3
20260506170055 13 204 1.6 11.3 0.00 0.33 0.33 98 1012.5
20260506164551 13 185 3.2 14.5 0.00 0.33 0.33 98 1012.6
20260506163051 13 207 0.0 12.9 0.00 0.33 0.33 97 1012.8
20260506161549 13 78 4.8 19.3 0.00 0.33 0.33 97 1012.9
20260506160053 13 79 3.2 12.9 0.00 0.33 0.33 97 1013.0
20260506154550 13 125 1.6 14.5 0.00 0.33 0.33 97 1012.9
20260506153107 13 140 1.6 14.5 0.00 0.33 0.33 97 1012.9
20260506151546 13 219 3.2 11.3 0.00 0.33 0.33 97 1012.9
20260506150056 13 181 3.2 17.7 0.00 0.33 0.33 96 1012.9
20260506144554 13 157 4.8 16.1 0.00 0.33 0.33 96 1012.8
20260506143045 13 173 4.8 16.1 0.00 0.33 0.33 96 1012.9
20260506141544 13 194 3.2 16.1 0.00 0.33 0.33 96 1012.8
20260506140044 13 212 1.6 16.1 0.00 0.33 0.33 96 1012.9
20260506134543 13 123 1.6 17.7 0.00 0.33 0.33 95 1013.1
20260506133047 13 32 1.6 17.7 0.00 0.33 0.33 94 1013.1
20260506131551 13 171 4.8 16.1 0.00 0.33 0.33 94 1013.3
20260506130042 13 221 3.2 16.1 0.00 0.33 0.33 95 1013.1
20260506124540 13 195 1.6 9.7 0.00 0.33 0.33 95 1013.4
20260506123040 13 74 3.2 12.9 0.00 0.33 0.33 95 1013.5
20260506121539 13 146 1.6 11.3 0.00 0.33 0.33 95 1013.6
20260506120041 13 300 4.8 22.5 0.00 0.33 0.33 94 1013.6
20260506114538 13 228 1.6 16.1 0.00 0.33 0.33 94 1013.6
20260506113042 13 159 3.2 12.9 0.00 0.33 0.33 93 1013.5
20260506111538 13 196 4.8 17.7 0.00 0.33 0.33 91 1013.5
20260506110037 14 105 1.6 22.5 0.00 0.33 0.33 89 1013.3
20260506104537 15 150 4.8 25.7 0.00 0.33 0.33 85 1013.7
20260506103039 16 148 3.2 20.9 0.00 0.33 0.33 84 1013.6
20260506101532 15 166 4.8 19.3 0.00 0.33 0.33 83 1013.5
20260506100037 15 167 4.8 25.7 0.00 0.33 0.33 80 1013.7
20260506094530 15 178 6.4 22.5 0.00 0.33 0.33 82 1013.6
20260506093031 15 138 3.2 20.9 0.00 0.33 0.33 83 1013.6
20260506091531 15 303 1.6 14.5 0.00 0.33 0.33 85 1013.2
20260506090029 15 48 1.6 22.5 0.00 0.33 0.33 85 1013.4
20260506084523 15 280 3.2 19.3 0.00 0.33 0.33 86 1013.4
20260506083021 14 136 1.6 20.9 0.00 0.33 0.33 86 1013.5
20260506081520 13 91 4.8 14.5 0.00 0.33 0.33 85 1013.3
20260506073010 12 103 0.0 12.9 0.00 0.33 0.33 99 1013.1
20260506071511 12 80 0.0 4.8 0.00 0.33 0.33 100 1012.9